Voltar ao catálogo

STARLINK-5270

AtivoComunicaçõesVLEO
NORAD 55299·PAYLOAD·🇺🇸 United States

Lançado Jan 19, 2023 de Vandenberg Space Force Base

Loading…

Próximas Passagens (próximas 24 horas)

TLE

AtualizadoSource: CelesTrak SupGP

Época: Sep 15, 2026, 01:24 UTC

1 55299C 23010AG  26258.05881944 -.00007830  00000+0 -65601-3 0  2586
2 55299  69.9997 266.8456 0003840 264.6048 264.3946 14.98340368    14

Acompanhe STARLINK-5270 em tempo real com AllMySat

Download on the App Store